Time,TemperatureF,DewpointF,PressureIn,WindDirection,WindDirectionDegrees,WindSpeedMPH,WindSpeedGustMPH,Humidity,HourlyPrecipIn,Conditions,Clouds,dailyrainin,SoftwareType,DateUTC
2013-02-28 00:00:00,44.9,35.0,29.76,South,173,1.0,13.0,68,0.00,,,0.00,WeatherCatV1.11B39,2013-02-28 05:00:00,
2013-02-28 00:05:00,44.7,34.8,29.76,SSE,150,12.0,16.0,68,0.00,,,0.00,WeatherCatV1.11B39,2013-02-28 05:05:00,
2013-02-28 00:10:00,44.6,34.0,29.76,SE,129,8.0,10.0,66,0.00,,,0.00,WeatherCatV1.11B39,2013-02-28 05:10:00,
2013-02-28 00:15:00,44.6,34.0,29.76,SE,130,7.0,8.0,66,0.00,,,0.00,WeatherCatV1.11B39,2013-02-28 05:15:00,
2013-02-28 00:19:00,44.5,33.5,29.76,SE,145,10.0,19.0,65,0.00,,,0.00,WeatherCatV1.11B39,2013-02-28 05:19:00,
2013-02-28 00:24:00,44.4,33.4,29.76,SSE,166,10.0,10.0,65,0.00,,,0.00,WeatherCatV1.11B39,2013-02-28 05:24:00,
2013-02-28 00:29:00,44.3,33.3,29.77,SSE,155,7.0,10.0,65,0.00,,,0.00,WeatherCatV1.11B39,2013-02-28 05:29:00,
2013-02-28 00:34:00,44.2,33.2,29.77,South,169,9.0,9.0,65,0.00,,,0.00,WeatherCatV1.11B39,2013-02-28 05:34:00,
2013-02-28 00:39:00,44.0,32.6,29.77,SE,131,5.0,10.0,64,0.00,,,0.00,WeatherCatV1.11B39,2013-02-28 05:39:00,
2013-02-28 00:44:00,43.9,31.7,29.77,ENE,76,7.0,8.0,62,0.00,,,0.00,WeatherCatV1.11B39,2013-02-28 05:44:00,
2013-02-28 00:49:00,43.8,31.6,29.77,SE,143,10.0,12.0,62,0.00,,,0.00,WeatherCatV1.11B39,2013-02-28 05:49:00,
2013-02-28 00:54:00,43.6,31.5,29.77,SSE,167,5.0,14.0,62,0.00,,,0.00,WeatherCatV1.11B39,2013-02-28 05:54:00,
2013-02-28 00:59:00,43.5,31.8,29.78,SSW,204,11.0,11.0,63,0.00,,,0.00,WeatherCatV1.11B39,2013-02-28 05:59:00,
2013-02-28 01:04:00,43.2,30.7,29.77,South,173,15.0,24.0,61,0.00,,,0.00,WeatherCatV1.11B39,2013-02-28 06:04:00,
2013-02-28 01:09:00,43.0,30.5,29.77,South,185,7.0,12.0,61,0.00,,,0.00,WeatherCatV1.11B39,2013-02-28 06:09:00,
2013-02-28 01:14:00,42.7,30.6,29.77,SSE,163,5.0,13.0,62,0.00,,,0.00,WeatherCatV1.11B39,2013-02-28 06:14:00,
2013-02-28 01:19:00,42.4,30.3,29.78,SE,143,5.0,12.0,62,0.00,,,0.00,WeatherCatV1.11B39,2013-02-28 06:19:00,
2013-02-28 01:24:00,42.2,30.1,29.77,SE,145,12.0,17.0,62,0.00,,,0.00,WeatherCatV1.11B39,2013-02-28 06:24:00,
2013-02-28 01:29:00,42.0,30.3,29.77,SE,130,5.0,7.0,63,0.00,,,0.00,WeatherCatV1.11B39,2013-02-28 06:29:00,
2013-02-28 01:34:00,41.8,30.1,29.77,SSE,151,5.0,12.0,63,0.00,,,0.00,WeatherCatV1.11B39,2013-02-28 06:34:00,
2013-02-28 01:39:00,41.7,30.0,29.77,South,173,8.0,9.0,63,0.00,,,0.00,WeatherCatV1.11B39,2013-02-28 06:39:00,
2013-02-28 01:44:00,41.5,30.2,29.77,ESE,113,5.0,12.0,64,0.00,,,0.00,WeatherCatV1.11B39,2013-02-28 06:44:00,
2013-02-28 01:49:00,41.4,30.5,29.77,SE,134,6.0,13.0,65,0.00,,,0.00,WeatherCatV1.11B39,2013-02-28 06:49:00,
2013-02-28 01:54:00,41.3,30.4,29.77,ESE,119,5.0,12.0,65,0.00,,,0.00,WeatherCatV1.11B39,2013-02-28 06:54:00,
2013-02-28 01:59:00,41.2,30.3,29.77,SE,137,4.0,11.0,65,0.00,,,0.00,WeatherCatV1.11B39,2013-02-28 06:59:00,
2013-02-28 02:04:00,41.2,30.7,29.77,ESE,109,6.0,10.0,66,0.00,,,0.00,WeatherCatV1.11B39,2013-02-28 07:04:00,
2013-02-28 02:09:00,41.1,30.6,29.77,South,170,9.0,14.0,66,0.00,,,0.00,WeatherCatV1.11B39,2013-02-28 07:09:00,
2013-02-28 02:14:00,41.0,30.5,29.77,SSE,147,5.0,9.0,66,0.00,,,0.00,WeatherCatV1.11B39,2013-02-28 07:14:00,
2013-02-28 02:19:00,40.9,30.8,29.76,SSE,161,8.0,8.0,67,0.00,,,0.00,WeatherCatV1.11B39,2013-02-28 07:19:00,
2013-02-28 02:24:00,40.8,30.3,29.76,ESE,119,5.0,13.0,66,0.00,,,0.00,WeatherCatV1.11B39,2013-02-28 07:24:00,
2013-02-28 02:29:00,40.7,30.2,29.76,SE,136,6.0,7.0,66,0.00,,,0.00,WeatherCatV1.11B39,2013-02-28 07:29:00,
2013-02-28 02:34:00,40.7,30.2,29.76,East,96,5.0,12.0,66,0.00,,,0.00,WeatherCatV1.11B39,2013-02-28 07:34:00,
2013-02-28 02:39:00,40.6,30.1,29.76,SE,129,1.0,13.0,66,0.00,,,0.00,WeatherCatV1.11B39,2013-02-28 07:39:00,
2013-02-28 02:44:00,40.4,30.3,29.76,ESE,113,7.0,7.0,67,0.00,,,0.00,WeatherCatV1.11B39,2013-02-28 07:44:00,
2013-02-28 02:49:00,40.3,30.2,29.76,ESE,123,5.0,5.0,67,0.00,,,0.00,WeatherCatV1.11B39,2013-02-28 07:49:00,
2013-02-28 02:54:00,40.2,29.8,29.76,SE,132,8.0,8.0,66,0.00,,,0.00,WeatherCatV1.11B39,2013-02-28 07:54:00,
2013-02-28 02:59:00,40.2,30.1,29.76,SE,132,4.0,6.0,67,0.00,,,0.00,WeatherCatV1.11B39,2013-02-28 07:59:00,
2013-02-28 03:02:00,40.1,30.0,29.76,SE,135,4.0,4.0,67,0.00,,,0.00,WeatherCatV1.11B39,2013-02-28 08:02:00,
2013-02-28 03:07:00,40.1,29.7,29.75,ENE,73,4.0,6.0,66,0.00,,,0.00,WeatherCatV1.11B39,2013-02-28 08:07:00,
2013-02-28 03:12:00,40.1,29.7,29.75,SE,135,6.0,8.0,66,0.00,,,0.00,WeatherCatV1.11B39,2013-02-28 08:12:00,
2013-02-28 03:17:00,40.0,29.6,29.75,SSE,158,6.0,6.0,66,0.00,,,0.00,WeatherCatV1.11B39,2013-02-28 08:17:00,
2013-02-28 03:22:00,40.0,29.6,29.75,East,101,5.0,8.0,66,0.00,,,0.00,WeatherCatV1.11B39,2013-02-28 08:22:00,
2013-02-28 03:27:00,40.0,29.6,29.75,SSE,150,9.0,9.0,66,0.00,,,0.00,WeatherCatV1.11B39,2013-02-28 08:27:00,
2013-02-28 03:31:00,39.9,29.5,29.75,South,169,4.0,6.0,66,0.00,,,0.00,WeatherCatV1.11B39,2013-02-28 08:31:00,
2013-02-28 03:36:00,39.9,29.5,29.75,SSE,155,7.0,8.0,66,0.00,,,0.00,WeatherCatV1.11B39,2013-02-28 08:36:00,
2013-02-28 03:41:00,39.9,29.5,29.75,South,187,5.0,6.0,66,0.00,,,0.00,WeatherCatV1.11B39,2013-02-28 08:41:00,
2013-02-28 03:46:00,39.8,29.8,29.75,SW,229,8.0,11.0,67,0.00,,,0.00,WeatherCatV1.11B39,2013-02-28 08:46:00,
2013-02-28 03:51:00,39.8,29.4,29.76,SSE,161,12.0,16.0,66,0.00,,,0.00,WeatherCatV1.11B39,2013-02-28 08:51:00,
2013-02-28 03:56:00,39.7,28.5,29.76,SSE,156,6.0,16.0,64,0.00,,,0.00,WeatherCatV1.11B39,2013-02-28 08:56:00,
2013-02-28 04:01:00,39.5,28.3,29.76,SSE,164,9.0,9.0,64,0.00,,,0.00,WeatherCatV1.11B39,2013-02-28 09:01:00,
2013-02-28 04:06:00,39.4,27.9,29.76,South,189,6.0,12.0,63,0.00,,,0.00,WeatherCatV1.11B39,2013-02-28 09:06:00,
2013-02-28 04:11:00,39.3,27.8,29.76,SSW,200,12.0,13.0,63,0.00,,,0.00,WeatherCatV1.11B39,2013-02-28 09:11:00,
2013-02-28 04:16:00,39.1,27.6,29.76,SSW,201,7.0,9.0,63,0.00,,,0.00,WeatherCatV1.11B39,2013-02-28 09:16:00,
2013-02-28 04:21:00,39.0,27.1,29.76,South,178,2.0,7.0,62,0.00,,,0.00,WeatherCatV1.11B39,2013-02-28 09:21:00,
2013-02-28 04:26:00,38.8,26.9,29.76,SSE,153,2.0,10.0,62,0.00,,,0.00,WeatherCatV1.11B39,2013-02-28 09:26:00,
2013-02-28 04:31:00,38.7,26.4,29.76,SSE,147,4.0,11.0,61,0.00,,,0.00,WeatherCatV1.11B39,2013-02-28 09:31:00,
2013-02-28 04:36:00,38.5,26.6,29.76,SSE,149,5.0,5.0,62,0.00,,,0.00,WeatherCatV1.11B39,2013-02-28 09:36:00,
2013-02-28 04:41:00,38.4,26.1,29.76,South,182,5.0,8.0,61,0.00,,,0.00,WeatherCatV1.11B39,2013-02-28 09:41:00,
2013-02-28 04:46:00,38.2,26.0,29.76,SSE,149,10.0,11.0,61,0.00,,,0.00,WeatherCatV1.11B39,2013-02-28 09:46:00,
2013-02-28 04:51:00,38.1,26.2,29.76,SSE,166,0.0,4.0,62,0.00,,,0.00,WeatherCatV1.11B39,2013-02-28 09:51:00,
2013-02-28 04:56:00,37.9,25.7,29.76,SE,141,0.0,4.0,61,0.00,,,0.00,WeatherCatV1.11B39,2013-02-28 09:56:00,
2013-02-28 05:01:00,37.9,25.7,29.76,South,179,8.0,8.0,61,0.00,,,0.00,WeatherCatV1.11B39,2013-02-28 10:01:00,
2013-02-28 05:06:00,37.9,25.7,29.76,SE,141,2.0,7.0,61,0.00,,,0.00,WeatherCatV1.11B39,2013-02-28 10:06:00,
2013-02-28 05:11:00,37.8,25.6,29.76,SE,126,6.0,7.0,61,0.00,,,0.00,WeatherCatV1.11B39,2013-02-28 10:11:00,
2013-02-28 05:16:00,37.7,25.5,29.76,SSE,163,5.0,7.0,61,0.00,,,0.00,WeatherCatV1.11B39,2013-02-28 10:16:00,
2013-02-28 05:21:00,37.7,25.5,29.76,SE,141,6.0,6.0,61,0.00,,,0.00,WeatherCatV1.11B39,2013-02-28 10:21:00,
2013-02-28 05:26:00,37.7,25.1,29.76,SE,135,0.0,5.0,60,0.00,,,0.00,WeatherCatV1.11B39,2013-02-28 10:26:00,
2013-02-28 05:31:00,37.7,25.1,29.76,SSE,156,2.0,7.0,60,0.00,,,0.00,WeatherCatV1.11B39,2013-02-28 10:31:00,
2013-02-28 05:36:00,37.7,25.1,29.76,SE,137,4.0,4.0,60,0.00,,,0.00,WeatherCatV1.11B39,2013-02-28 10:36:00,
2013-02-28 05:41:00,37.7,26.3,29.76,SSE,149,2.0,4.0,63,0.00,,,0.00,WeatherCatV1.11B39,2013-02-28 10:41:00,
2013-02-28 05:46:00,37.6,25.8,29.76,ESE,121,4.0,7.0,62,0.00,,,0.00,WeatherCatV1.11B39,2013-02-28 10:46:00,
2013-02-28 05:51:00,37.7,25.5,29.76,SE,134,1.0,2.0,61,0.00,,,0.00,WeatherCatV1.11B39,2013-02-28 10:51:00,
2013-02-28 05:56:00,37.7,25.9,29.76,ESE,119,4.0,4.0,62,0.00,,,0.00,WeatherCatV1.11B39,2013-02-28 10:56:00,
2013-02-28 06:01:00,37.7,25.5,29.76,South,178,1.0,4.0,61,0.00,,,0.00,WeatherCatV1.11B39,2013-02-28 11:01:00,
2013-02-28 06:06:00,37.7,26.3,29.75,South,178,2.0,4.0,63,0.00,,,0.00,WeatherCatV1.11B39,2013-02-28 11:06:00,
2013-02-28 06:11:00,37.7,25.9,29.75,South,178,1.0,1.0,62,0.00,,,0.00,WeatherCatV1.11B39,2013-02-28 11:11:00,
2013-02-28 06:16:00,37.7,26.6,29.75,South,178,1.0,4.0,64,0.00,,,0.00,WeatherCatV1.11B39,2013-02-28 11:16:00,
2013-02-28 06:21:00,37.7,27.7,29.75,South,177,2.0,4.0,67,0.00,,,0.00,WeatherCatV1.11B39,2013-02-28 11:21:00,
2013-02-28 06:26:00,37.6,28.7,29.76,South,177,0.0,1.0,70,0.00,,,0.00,WeatherCatV1.11B39,2013-02-28 11:26:00,
2013-02-28 06:31:00,37.4,27.1,29.75,South,177,1.0,2.0,66,0.00,,,0.00,WeatherCatV1.11B39,2013-02-28 11:31:00,
2013-02-28 06:36:00,37.4,27.8,29.76,South,177,1.0,2.0,68,0.00,,,0.00,WeatherCatV1.11B39,2013-02-28 11:36:00,
2013-02-28 06:41:00,37.4,27.5,29.76,South,176,0.0,1.0,67,0.00,,,0.00,WeatherCatV1.11B39,2013-02-28 11:41:00,
2013-02-28 06:46:00,37.3,26.6,29.76,South,176,0.0,2.0,65,0.00,,,0.00,WeatherCatV1.11B39,2013-02-28 11:46:00,
2013-02-28 06:51:00,37.3,26.6,29.76,South,176,1.0,2.0,65,0.00,,,0.00,WeatherCatV1.11B39,2013-02-28 11:51:00,
2013-02-28 06:56:00,37.3,27.0,29.76,South,176,1.0,2.0,66,0.00,,,0.00,WeatherCatV1.11B39,2013-02-28 11:56:00,
2013-02-28 07:01:00,37.4,27.1,29.77,SSE,151,1.0,4.0,66,0.00,,,0.00,WeatherCatV1.11B39,2013-02-28 12:01:00,
2013-02-28 07:06:00,37.6,28.0,29.77,ESE,110,2.0,4.0,68,0.00,,,0.00,WeatherCatV1.11B39,2013-02-28 12:06:00,
2013-02-28 07:11:00,37.7,28.1,29.77,SE,141,4.0,9.0,68,0.00,,,0.00,WeatherCatV1.11B39,2013-02-28 12:11:00,
2013-02-28 07:16:00,37.9,28.3,29.77,SE,131,2.0,5.0,68,0.00,,,0.00,WeatherCatV1.11B39,2013-02-28 12:16:00,
2013-02-28 07:21:00,38.0,28.4,29.77,SSE,167,1.0,7.0,68,0.00,,,0.00,WeatherCatV1.11B39,2013-02-28 12:21:00,
2013-02-28 07:26:00,38.1,28.5,29.77,SSE,163,7.0,11.0,68,0.00,,,0.00,WeatherCatV1.11B39,2013-02-28 12:26:00,
2013-02-28 07:31:00,38.3,28.7,29.77,SE,130,6.0,10.0,68,0.00,,,0.00,WeatherCatV1.11B39,2013-02-28 12:31:00,
2013-02-28 07:36:00,38.3,29.0,29.77,SE,138,5.0,6.0,69,0.00,,,0.00,WeatherCatV1.11B39,2013-02-28 12:36:00,
2013-02-28 07:41:00,38.3,29.0,29.77,SE,135,4.0,8.0,69,0.00,,,0.00,WeatherCatV1.11B39,2013-02-28 12:41:00,
2013-02-28 07:46:00,38.2,28.9,29.77,SE,144,2.0,6.0,69,0.00,,,0.00,WeatherCatV1.11B39,2013-02-28 12:46:00,
2013-02-28 07:51:00,38.2,29.3,29.77,ESE,115,4.0,9.0,70,0.00,,,0.00,WeatherCatV1.11B39,2013-02-28 12:51:00,
2013-02-28 07:56:00,38.1,29.2,29.78,ESE,120,7.0,8.0,70,0.00,,,0.00,WeatherCatV1.11B39,2013-02-28 12:56:00,
2013-02-28 08:01:00,38.2,29.3,29.78,SSE,159,1.0,10.0,70,0.00,,,0.00,WeatherCatV1.11B39,2013-02-28 13:01:00,
2013-02-28 08:06:00,38.2,29.3,29.78,ESE,106,5.0,7.0,70,0.00,,,0.00,WeatherCatV1.11B39,2013-02-28 13:06:00,
2013-02-28 08:11:00,38.2,29.3,29.79,SE,134,1.0,4.0,70,0.00,,,0.00,WeatherCatV1.11B39,2013-02-28 13:11:00,
2013-02-28 08:16:00,38.2,29.3,29.78,SE,126,5.0,5.0,70,0.00,,,0.00,WeatherCatV1.11B39,2013-02-28 13:16:00,
2013-02-28 08:21:00,38.3,29.4,29.79,SE,145,7.0,7.0,70,0.00,,,0.00,WeatherCatV1.11B39,2013-02-28 13:21:00,
2013-02-28 08:26:00,38.3,29.4,29.79,SE,132,5.0,6.0,70,0.00,,,0.00,WeatherCatV1.11B39,2013-02-28 13:26:00,
2013-02-28 08:30:00,38.3,29.4,29.79,South,173,7.0,12.0,70,0.00,,,0.00,WeatherCatV1.11B39,2013-02-28 13:30:00,
2013-02-28 08:35:00,38.4,29.5,29.79,South,173,6.0,8.0,70,0.00,,,0.00,WeatherCatV1.11B39,2013-02-28 13:35:00,
2013-02-28 08:40:00,38.4,29.5,29.79,SE,143,7.0,8.0,70,0.00,,,0.00,WeatherCatV1.11B39,2013-02-28 13:40:00,
2013-02-28 08:45:00,38.5,29.6,29.79,ESE,123,7.0,7.0,70,0.00,,,0.00,WeatherCatV1.11B39,2013-02-28 13:45:00,
2013-02-28 08:50:00,38.6,29.7,29.79,SE,146,8.0,11.0,70,0.00,,,0.00,WeatherCatV1.11B39,2013-02-28 13:50:00,
2013-02-28 08:55:00,38.6,29.7,29.79,SE,136,7.0,7.0,70,0.00,,,0.00,WeatherCatV1.11B39,2013-02-28 13:55:00,
2013-02-28 09:00:00,38.7,29.8,29.79,South,174,7.0,9.0,70,0.00,,,0.00,WeatherCatV1.11B39,2013-02-28 14:00:00,
2013-02-28 09:05:00,38.8,29.9,29.79,SSE,168,6.0,6.0,70,0.00,,,0.00,WeatherCatV1.11B39,2013-02-28 14:05:00,
2013-02-28 09:10:00,38.9,29.6,29.79,South,180,7.0,12.0,69,0.00,,,0.00,WeatherCatV1.11B39,2013-02-28 14:10:00,
2013-02-28 09:15:00,39.1,29.8,29.79,ESE,123,4.0,9.0,69,0.00,,,0.00,WeatherCatV1.11B39,2013-02-28 14:15:00,
2013-02-28 09:20:00,39.2,29.5,29.79,SSE,154,9.0,14.0,68,0.00,,,0.00,WeatherCatV1.11B39,2013-02-28 14:20:00,
2013-02-28 09:25:00,39.3,29.6,29.79,East,101,5.0,12.0,68,0.00,,,0.00,WeatherCatV1.11B39,2013-02-28 14:25:00,
2013-02-28 09:30:00,39.5,29.8,29.79,South,172,7.0,15.0,68,0.00,,,0.00,WeatherCatV1.11B39,2013-02-28 14:30:00,
2013-02-28 09:35:00,39.6,29.9,29.79,SSE,159,5.0,12.0,68,0.00,,,0.00,WeatherCatV1.11B39,2013-02-28 14:35:00,
2013-02-28 09:40:00,39.4,30.4,29.79,SW,217,7.0,12.0,70,0.00,,,0.00,WeatherCatV1.11B39,2013-02-28 14:40:00,
2013-02-28 09:45:00,39.3,30.0,29.79,SSE,167,9.0,18.0,69,0.00,,,0.00,WeatherCatV1.11B39,2013-02-28 14:45:00,
2013-02-28 09:50:00,38.9,30.0,29.79,South,180,8.0,17.0,70,0.00,,,0.00,WeatherCatV1.11B39,2013-02-28 14:50:00,
2013-02-28 09:55:00,38.7,30.1,29.80,SSW,199,6.0,9.0,71,0.00,,,0.00,WeatherCatV1.11B39,2013-02-28 14:55:00,
2013-02-28 10:00:00,38.5,29.9,29.79,SSW,202,10.0,17.0,71,0.00,,,0.00,WeatherCatV1.11B39,2013-02-28 15:00:00,
2013-02-28 10:05:00,38.4,29.8,29.79,SSE,165,11.0,14.0,71,0.00,,,0.00,WeatherCatV1.11B39,2013-02-28 15:05:00,
2013-02-28 10:10:00,38.4,29.8,29.79,SW,217,13.0,16.0,71,0.00,,,0.00,WeatherCatV1.11B39,2013-02-28 15:10:00,
2013-02-28 10:15:00,38.6,30.0,29.80,SSW,196,6.0,8.0,71,0.00,,,0.00,WeatherCatV1.11B39,2013-02-28 15:15:00,
2013-02-28 10:20:00,38.8,29.9,29.80,SE,143,5.0,8.0,70,0.00,,,0.00,WeatherCatV1.11B39,2013-02-28 15:20:00,
2013-02-28 10:25:00,39.0,29.7,29.80,SSE,162,8.0,9.0,69,0.00,,,0.00,WeatherCatV1.11B39,2013-02-28 15:25:00,
2013-02-28 10:30:00,39.1,29.8,29.80,SSE,166,10.0,14.0,69,0.00,,,0.00,WeatherCatV1.11B39,2013-02-28 15:30:00,
2013-02-28 10:35:00,39.1,29.4,29.80,SE,138,6.0,13.0,68,0.00,,,0.00,WeatherCatV1.11B39,2013-02-28 15:35:00,
2013-02-28 10:40:00,39.1,29.1,29.80,SSW,209,6.0,18.0,67,0.00,,,0.00,WeatherCatV1.11B39,2013-02-28 15:40:00,
2013-02-28 10:45:00,39.3,29.3,29.80,South,182,6.0,8.0,67,0.00,,,0.00,WeatherCatV1.11B39,2013-02-28 15:45:00,
2013-02-28 10:50:00,39.4,29.0,29.80,SSE,162,8.0,11.0,66,0.00,,,0.00,WeatherCatV1.11B39,2013-02-28 15:50:00,
2013-02-28 10:55:00,39.4,29.0,29.81,SE,140,10.0,15.0,66,0.00,,,0.00,WeatherCatV1.11B39,2013-02-28 15:55:00,
2013-02-28 11:00:00,39.4,29.0,29.80,ESE,116,9.0,9.0,66,0.00,,,0.00,WeatherCatV1.11B39,2013-02-28 16:00:00,
2013-02-28 11:05:00,39.6,29.6,29.81,ENE,66,2.0,4.0,67,0.00,,,0.00,WeatherCatV1.11B39,2013-02-28 16:05:00,
2013-02-28 11:10:00,39.8,29.8,29.81,SSW,200,2.0,9.0,67,0.00,,,0.00,WeatherCatV1.11B39,2013-02-28 16:10:00,
2013-02-28 11:15:00,39.7,28.9,29.82,ESE,120,5.0,14.0,65,0.00,,,0.00,WeatherCatV1.11B39,2013-02-28 16:15:00,
2013-02-28 11:20:00,39.6,29.2,29.82,South,184,10.0,10.0,66,0.00,,,0.00,WeatherCatV1.11B39,2013-02-28 16:20:00,
2013-02-28 11:25:00,39.4,29.4,29.82,SW,227,6.0,7.0,67,0.00,,,0.00,WeatherCatV1.11B39,2013-02-28 16:25:00,
2013-02-28 11:30:00,39.0,29.0,29.82,SE,146,14.0,24.0,67,0.00,,,0.00,WeatherCatV1.11B39,2013-02-28 16:30:00,
2013-02-28 11:35:00,38.6,29.0,29.83,SW,219,17.0,20.0,68,0.00,,,0.00,WeatherCatV1.11B39,2013-02-28 16:35:00,
2013-02-28 11:40:00,38.6,29.0,29.82,SSW,203,13.0,13.0,68,0.00,,,0.00,WeatherCatV1.11B39,2013-02-28 16:40:00,
2013-02-28 11:45:00,38.5,28.9,29.83,South,188,5.0,17.0,68,0.00,,,0.00,WeatherCatV1.11B39,2013-02-28 16:45:00,
2013-02-28 11:50:00,38.5,28.9,29.83,SE,142,4.0,17.0,68,0.00,,,0.00,WeatherCatV1.11B39,2013-02-28 16:50:00,
2013-02-28 11:55:00,38.6,28.6,29.83,SE,146,10.0,14.0,67,0.00,,,0.00,WeatherCatV1.11B39,2013-02-28 16:55:00,
2013-02-28 12:00:00,38.7,28.7,29.83,South,179,16.0,18.0,67,0.00,,,0.00,WeatherCatV1.11B39,2013-02-28 17:00:00,
2013-02-28 12:05:00,38.7,28.3,29.82,SE,130,12.0,26.0,66,0.00,,,0.00,WeatherCatV1.11B39,2013-02-28 17:05:00,
2013-02-28 12:10:00,38.9,28.5,29.82,SSW,212,12.0,17.0,66,0.00,,,0.00,WeatherCatV1.11B39,2013-02-28 17:10:00,
2013-02-28 12:15:00,39.0,28.2,29.83,SSW,204,10.0,19.0,65,0.00,,,0.00,WeatherCatV1.11B39,2013-02-28 17:15:00,
2013-02-28 12:20:00,39.2,28.1,29.82,South,187,11.0,18.0,64,0.00,,,0.00,WeatherCatV1.11B39,2013-02-28 17:20:00,
2013-02-28 12:25:00,39.4,28.2,29.82,South,183,6.0,17.0,64,0.00,,,0.00,WeatherCatV1.11B39,2013-02-28 17:25:00,
2013-02-28 12:30:00,39.6,28.4,29.82,South,186,7.0,8.0,64,0.00,,,0.00,WeatherCatV1.11B39,2013-02-28 17:30:00,
2013-02-28 12:35:00,39.6,28.1,29.82,SSW,192,7.0,13.0,63,0.00,,,0.00,WeatherCatV1.11B39,2013-02-28 17:35:00,
2013-02-28 12:40:00,39.8,27.9,29.82,SSE,157,7.0,15.0,62,0.00,,,0.00,WeatherCatV1.11B39,2013-02-28 17:40:00,
2013-02-28 12:45:00,40.0,28.4,29.82,SSE,148,8.0,11.0,63,0.00,,,0.00,WeatherCatV1.11B39,2013-02-28 17:45:00,
2013-02-28 12:50:00,40.2,28.2,29.82,ENE,78,5.0,14.0,62,0.00,,,0.00,WeatherCatV1.11B39,2013-02-28 17:50:00,
2013-02-28 12:55:00,40.4,28.0,29.82,SE,133,7.0,20.0,61,0.00,,,0.00,WeatherCatV1.11B39,2013-02-28 17:55:00,
2013-02-28 13:00:00,40.7,28.7,29.82,SE,136,10.0,16.0,62,0.00,,,0.00,WeatherCatV1.11B39,2013-02-28 18:00:00,
2013-02-28 13:05:00,41.5,29.1,29.82,SE,139,6.0,14.0,61,0.00,,,0.00,WeatherCatV1.11B39,2013-02-28 18:05:00,
2013-02-28 13:10:00,41.9,28.6,29.82,South,185,6.0,11.0,59,0.00,,,0.00,WeatherCatV1.11B39,2013-02-28 18:10:00,
2013-02-28 13:15:00,41.5,28.3,29.82,SSW,192,15.0,15.0,59,0.00,,,0.00,WeatherCatV1.11B39,2013-02-28 18:15:00,
2013-02-28 13:20:00,40.8,28.0,29.83,SSE,163,9.0,11.0,60,0.00,,,0.00,WeatherCatV1.11B39,2013-02-28 18:20:00,
2013-02-28 13:25:00,40.6,28.6,29.82,South,178,6.0,13.0,62,0.00,,,0.00,WeatherCatV1.11B39,2013-02-28 18:25:00,
2013-02-28 13:30:00,40.8,28.4,29.82,SE,134,13.0,13.0,61,0.00,,,0.00,WeatherCatV1.11B39,2013-02-28 18:30:00,
2013-02-28 13:34:00,41.0,28.6,29.82,ESE,121,8.0,11.0,61,0.00,,,0.00,WeatherCatV1.11B39,2013-02-28 18:34:00,
2013-02-28 13:39:00,41.8,28.9,29.82,SSE,157,5.0,13.0,60,0.00,,,0.00,WeatherCatV1.11B39,2013-02-28 18:39:00,
2013-02-28 13:44:00,42.3,29.0,29.82,South,174,7.0,11.0,59,0.00,,,0.00,WeatherCatV1.11B39,2013-02-28 18:44:00,
2013-02-28 13:49:00,41.0,28.2,29.82,SSW,196,5.0,14.0,60,0.00,,,0.00,WeatherCatV1.11B39,2013-02-28 18:49:00,
2013-02-28 13:54:00,40.5,28.5,29.82,SSE,159,9.0,19.0,62,0.00,,,0.00,WeatherCatV1.11B39,2013-02-28 18:54:00,
2013-02-28 13:59:00,39.9,28.3,29.83,SSE,154,8.0,14.0,63,0.00,,,0.00,WeatherCatV1.11B39,2013-02-28 18:59:00,
2013-02-28 14:04:00,39.8,28.6,29.83,South,188,7.0,12.0,64,0.00,,,0.00,WeatherCatV1.11B39,2013-02-28 19:04:00,
2013-02-28 14:09:00,39.5,28.7,29.83,WSW,240,13.0,13.0,65,0.00,,,0.00,WeatherCatV1.11B39,2013-02-28 19:09:00,
2013-02-28 14:14:00,39.5,29.5,29.83,SSW,200,7.0,12.0,67,0.00,,,0.00,WeatherCatV1.11B39,2013-02-28 19:14:00,
2013-02-28 14:19:00,39.4,29.0,29.83,SE,146,6.0,13.0,66,0.00,,,0.00,WeatherCatV1.11B39,2013-02-28 19:19:00,
2013-02-28 14:24:00,39.3,28.9,29.82,SSW,212,3.0,18.0,66,0.00,,,0.00,WeatherCatV1.11B39,2013-02-28 19:24:00,
2013-02-28 14:29:00,39.2,28.8,29.82,SSW,192,9.0,13.0,66,0.00,,,0.00,WeatherCatV1.11B39,2013-02-28 19:29:00,
2013-02-28 14:34:00,39.2,28.8,29.82,South,175,5.0,6.0,66,0.00,,,0.00,WeatherCatV1.11B39,2013-02-28 19:34:00,
2013-02-28 14:39:00,39.3,28.5,29.82,SSW,199,10.0,18.0,65,0.00,,,0.00,WeatherCatV1.11B39,2013-02-28 19:39:00,
2013-02-28 14:44:00,39.2,28.8,29.83,SSW,199,9.0,9.0,66,0.00,,,0.00,WeatherCatV1.11B39,2013-02-28 19:44:00,
2013-02-28 14:49:00,39.2,28.8,29.83,South,180,2.0,14.0,66,0.00,,,0.00,WeatherCatV1.11B39,2013-02-28 19:49:00,
2013-02-28 14:54:00,39.2,28.4,29.83,SSW,197,10.0,16.0,65,0.00,,,0.00,WeatherCatV1.11B39,2013-02-28 19:54:00,
2013-02-28 14:59:00,39.1,28.7,29.84,SW,224,6.0,13.0,66,0.00,,,0.00,WeatherCatV1.11B39,2013-02-28 19:59:00,
2013-02-28 15:04:00,39.1,28.7,29.84,South,186,9.0,17.0,66,0.00,,,0.00,WeatherCatV1.11B39,2013-02-28 20:04:00,
2013-02-28 15:09:00,39.0,28.6,29.84,SSW,201,3.0,11.0,66,0.00,,,0.00,WeatherCatV1.11B39,2013-02-28 20:09:00,
2013-02-28 15:14:00,38.9,28.9,29.84,SSE,166,9.0,12.0,67,0.00,,,0.00,WeatherCatV1.11B39,2013-02-28 20:14:00,
2013-02-28 15:19:00,38.8,28.8,29.85,SSE,149,6.0,11.0,67,0.00,,,0.00,WeatherCatV1.11B39,2013-02-28 20:19:00,
2013-02-28 15:24:00,38.7,28.3,29.85,South,187,10.0,13.0,66,0.00,,,0.00,WeatherCatV1.11B39,2013-02-28 20:24:00,
2013-02-28 15:29:00,38.5,28.1,29.85,SW,214,7.0,16.0,66,0.00,,,0.00,WeatherCatV1.11B39,2013-02-28 20:29:00,
2013-02-28 15:34:00,38.4,28.4,29.85,SSE,163,10.0,14.0,67,0.00,,,0.00,WeatherCatV1.11B39,2013-02-28 20:34:00,
2013-02-28 15:39:00,38.3,28.3,29.85,SSE,168,5.0,11.0,67,0.00,,,0.00,WeatherCatV1.11B39,2013-02-28 20:39:00,
2013-02-28 15:44:00,38.2,28.2,29.85,South,181,11.0,16.0,67,0.00,,,0.00,WeatherCatV1.11B39,2013-02-28 20:44:00,
2013-02-28 15:49:00,38.1,28.5,29.86,South,189,12.0,16.0,68,0.00,,,0.00,WeatherCatV1.11B39,2013-02-28 20:49:00,
2013-02-28 15:54:00,38.0,28.4,29.86,SSW,192,7.0,10.0,68,0.00,,,0.00,WeatherCatV1.11B39,2013-02-28 20:54:00,
2013-02-28 15:59:00,37.9,28.7,29.85,SSE,164,4.0,7.0,69,0.00,,,0.00,WeatherCatV1.11B39,2013-02-28 20:59:00,
2013-02-28 16:04:00,38.0,28.7,29.86,SE,135,5.0,9.0,69,0.00,,,0.00,WeatherCatV1.11B39,2013-02-28 21:04:00,
2013-02-28 16:09:00,37.8,28.2,29.86,South,178,5.0,16.0,68,0.00,,,0.00,WeatherCatV1.11B39,2013-02-28 21:09:00,
2013-02-28 16:14:00,37.8,28.6,29.87,South,171,2.0,12.0,69,0.00,,,0.00,WeatherCatV1.11B39,2013-02-28 21:14:00,
2013-02-28 16:19:00,37.7,28.1,29.87,South,172,7.0,20.0,68,0.00,,,0.00,WeatherCatV1.11B39,2013-02-28 21:19:00,
2013-02-28 16:24:00,37.5,28.3,29.87,SSE,149,10.0,15.0,69,0.00,,,0.00,WeatherCatV1.11B39,2013-02-28 21:24:00,
2013-02-28 16:29:00,37.4,28.2,29.87,South,186,9.0,18.0,69,0.00,,,0.00,WeatherCatV1.11B39,2013-02-28 21:29:00,
2013-02-28 16:34:00,37.4,28.2,29.87,SE,130,9.0,13.0,69,0.00,,,0.00,WeatherCatV1.11B39,2013-02-28 21:34:00,
2013-02-28 16:39:00,37.4,28.2,29.87,SSE,163,4.0,14.0,69,0.00,,,0.00,WeatherCatV1.11B39,2013-02-28 21:39:00,
2013-02-28 16:44:00,37.4,28.2,29.87,SW,217,6.0,6.0,69,0.00,,,0.00,WeatherCatV1.11B39,2013-02-28 21:44:00,
2013-02-28 16:49:00,37.4,28.2,29.87,SSE,157,6.0,14.0,69,0.00,,,0.00,WeatherCatV1.11B39,2013-02-28 21:49:00,
2013-02-28 16:54:00,37.4,28.2,29.88,SSW,205,8.0,17.0,69,0.00,,,0.00,WeatherCatV1.11B39,2013-02-28 21:54:00,
2013-02-28 16:59:00,37.4,28.5,29.88,South,186,5.0,6.0,70,0.00,,,0.00,WeatherCatV1.11B39,2013-02-28 21:59:00,
2013-02-28 17:04:00,37.4,28.2,29.88,SSE,161,5.0,7.0,69,0.00,,,0.00,WeatherCatV1.11B39,2013-02-28 22:04:00,
2013-02-28 17:09:00,37.2,28.0,29.87,South,184,11.0,14.0,69,0.00,,,0.00,WeatherCatV1.11B39,2013-02-28 22:09:00,
2013-02-28 17:14:00,37.1,27.9,29.87,SSE,159,7.0,16.0,69,0.00,,,0.00,WeatherCatV1.11B39,2013-02-28 22:14:00,
2013-02-28 17:19:00,37.1,27.5,29.88,SSE,168,8.0,14.0,68,0.00,,,0.00,WeatherCatV1.11B39,2013-02-28 22:19:00,
2013-02-28 17:24:00,37.1,27.5,29.88,South,183,5.0,9.0,68,0.00,,,0.00,WeatherCatV1.11B39,2013-02-28 22:24:00,
2013-02-28 17:29:00,37.1,27.2,29.88,South,180,11.0,12.0,67,0.00,,,0.00,WeatherCatV1.11B39,2013-02-28 22:29:00,
2013-02-28 17:34:00,37.1,27.2,29.88,SSE,161,7.0,17.0,67,0.00,,,0.00,WeatherCatV1.11B39,2013-02-28 22:34:00,
2013-02-28 17:39:00,37.1,27.2,29.88,ESE,111,4.0,7.0,67,0.00,,,0.00,WeatherCatV1.11B39,2013-02-28 22:39:00,
2013-02-28 17:44:00,37.1,27.2,29.89,SSW,210,4.0,12.0,67,0.00,,,0.00,WeatherCatV1.11B39,2013-02-28 22:44:00,
2013-02-28 17:49:00,37.1,26.8,29.89,South,186,10.0,13.0,66,0.00,,,0.00,WeatherCatV1.11B39,2013-02-28 22:49:00,
2013-02-28 17:54:00,37.1,26.4,29.89,South,178,9.0,14.0,65,0.00,,,0.00,WeatherCatV1.11B39,2013-02-28 22:54:00,
2013-02-28 17:59:00,37.1,26.4,29.89,SE,128,4.0,7.0,65,0.00,,,0.00,WeatherCatV1.11B39,2013-02-28 22:59:00,
2013-02-28 18:04:00,37.1,26.1,29.89,SE,141,7.0,10.0,64,0.00,,,0.00,WeatherCatV1.11B39,2013-02-28 23:04:00,
2013-02-28 18:09:00,37.1,26.1,29.89,SSE,147,6.0,9.0,64,0.00,,,0.00,WeatherCatV1.11B39,2013-02-28 23:09:00,
2013-02-28 18:14:00,37.1,25.7,29.89,South,182,7.0,18.0,63,0.00,,,0.00,WeatherCatV1.11B39,2013-02-28 23:14:00,
2013-02-28 18:19:00,37.1,26.1,29.90,SSE,153,8.0,9.0,64,0.00,,,0.00,WeatherCatV1.11B39,2013-02-28 23:19:00,
2013-02-28 18:24:00,37.1,26.1,29.90,SSE,149,7.0,8.0,64,0.00,,,0.00,WeatherCatV1.11B39,2013-02-28 23:24:00,
2013-02-28 18:29:00,37.0,26.0,29.90,ESE,110,11.0,11.0,64,0.00,,,0.00,WeatherCatV1.11B39,2013-02-28 23:29:00,
2013-02-28 18:34:00,37.0,26.0,29.90,SE,142,1.0,6.0,64,0.00,,,0.00,WeatherCatV1.11B39,2013-02-28 23:34:00,
2013-02-28 18:38:00,37.0,26.0,29.89,South,169,9.0,9.0,64,0.00,,,0.00,WeatherCatV1.11B39,2013-02-28 23:38:00,
2013-02-28 18:43:00,36.9,25.9,29.89,South,175,5.0,5.0,64,0.00,,,0.00,WeatherCatV1.11B39,2013-02-28 23:43:00,
2013-02-28 18:48:00,36.9,25.9,29.90,SSE,166,8.0,8.0,64,0.00,,,0.00,WeatherCatV1.11B39,2013-02-28 23:48:00,
2013-02-28 18:53:00,36.9,25.9,29.89,SE,146,4.0,13.0,64,0.00,,,0.00,WeatherCatV1.11B39,2013-02-28 23:53:00,
2013-02-28 18:58:00,36.9,25.9,29.90,South,182,5.0,7.0,64,0.00,,,0.00,WeatherCatV1.11B39,2013-02-28 23:58:00,
2013-02-28 19:03:00,36.8,25.8,29.90,SSE,155,6.0,6.0,64,0.00,,,0.00,WeatherCatV1.11B39,2013-03-01 00:03:00,
2013-02-28 19:08:00,36.8,25.8,29.89,SW,217,3.0,8.0,64,0.00,,,0.00,WeatherCatV1.11B39,2013-03-01 00:08:00,
2013-02-28 19:13:00,36.8,26.2,29.90,SSW,192,5.0,14.0,65,0.00,,,0.00,WeatherCatV1.11B39,2013-03-01 00:13:00,
2013-02-28 19:18:00,36.7,26.1,29.90,SE,141,7.0,12.0,65,0.00,,,0.00,WeatherCatV1.11B39,2013-03-01 00:18:00,
2013-02-28 19:23:00,36.6,26.0,29.90,SSW,207,7.0,8.0,65,0.00,,,0.00,WeatherCatV1.11B39,2013-03-01 00:23:00,
2013-02-28 19:28:00,36.6,26.3,29.91,SSW,206,8.0,8.0,66,0.00,,,0.00,WeatherCatV1.11B39,2013-03-01 00:28:00,
2013-02-28 19:33:00,36.5,26.2,29.90,SSE,157,1.0,5.0,66,0.00,,,0.00,WeatherCatV1.11B39,2013-03-01 00:33:00,
2013-02-28 19:38:00,36.5,26.2,29.91,South,186,8.0,9.0,66,0.00,,,0.00,WeatherCatV1.11B39,2013-03-01 00:38:00,
2013-02-28 19:43:00,36.5,26.2,29.91,South,175,9.0,13.0,66,0.00,,,0.00,WeatherCatV1.11B39,2013-03-01 00:43:00,
2013-02-28 19:48:00,36.4,25.8,29.91,SSE,149,2.0,8.0,65,0.00,,,0.00,WeatherCatV1.11B39,2013-03-01 00:48:00,
2013-02-28 19:53:00,36.3,25.7,29.91,South,190,12.0,13.0,65,0.00,,,0.00,WeatherCatV1.11B39,2013-03-01 00:53:00,
2013-02-28 19:58:00,36.2,25.6,29.91,South,190,8.0,15.0,65,0.00,,,0.00,WeatherCatV1.11B39,2013-03-01 00:58:00,
2013-02-28 20:03:00,36.1,25.5,29.91,South,174,7.0,14.0,65,0.00,,,0.00,WeatherCatV1.11B39,2013-03-01 01:03:00,
2013-02-28 20:08:00,36.0,25.8,29.91,South,172,7.0,16.0,66,0.00,,,0.00,WeatherCatV1.11B39,2013-03-01 01:08:00,
2013-02-28 20:13:00,36.0,25.8,29.91,SSE,168,7.0,7.0,66,0.00,,,0.00,WeatherCatV1.11B39,2013-03-01 01:13:00,
2013-02-28 20:18:00,36.0,25.8,29.91,SSW,203,17.0,18.0,66,0.00,,,0.00,WeatherCatV1.11B39,2013-03-01 01:18:00,
2013-02-28 20:23:00,35.9,26.0,29.91,South,188,3.0,8.0,67,0.00,,,0.00,WeatherCatV1.11B39,2013-03-01 01:23:00,
2013-02-28 20:28:00,35.9,26.0,29.91,SW,217,7.0,9.0,67,0.00,,,0.00,WeatherCatV1.11B39,2013-03-01 01:28:00,
2013-02-28 20:33:00,35.8,25.6,29.90,South,176,8.0,16.0,66,0.00,,,0.00,WeatherCatV1.11B39,2013-03-01 01:33:00,
2013-02-28 20:38:00,35.8,25.9,29.90,South,178,7.0,11.0,67,0.00,,,0.00,WeatherCatV1.11B39,2013-03-01 01:38:00,
2013-02-28 20:43:00,35.8,25.9,29.91,South,183,4.0,16.0,67,0.00,,,0.00,WeatherCatV1.11B39,2013-03-01 01:43:00,
2013-02-28 20:48:00,35.8,26.3,29.91,SSE,159,4.0,6.0,68,0.00,,,0.00,WeatherCatV1.11B39,2013-03-01 01:48:00,
2013-02-28 20:53:00,35.8,25.6,29.91,South,171,10.0,13.0,66,0.00,,,0.00,WeatherCatV1.11B39,2013-03-01 01:53:00,
2013-02-28 20:58:00,35.8,25.9,29.91,SE,132,4.0,11.0,67,0.00,,,0.00,WeatherCatV1.11B39,2013-03-01 01:58:00,
2013-02-28 21:03:00,35.8,25.9,29.92,South,186,11.0,11.0,67,0.00,,,0.00,WeatherCatV1.11B39,2013-03-01 02:03:00,
2013-02-28 21:08:00,35.8,25.9,29.92,SE,134,2.0,11.0,67,0.00,,,0.00,WeatherCatV1.11B39,2013-03-01 02:08:00,
2013-02-28 21:13:00,35.8,25.9,29.92,SSW,194,2.0,8.0,67,0.00,,,0.00,WeatherCatV1.11B39,2013-03-01 02:13:00,
2013-02-28 21:18:00,35.7,26.2,29.92,South,177,4.0,7.0,68,0.00,,,0.00,WeatherCatV1.11B39,2013-03-01 02:18:00,
2013-02-28 21:23:00,35.8,25.9,29.92,SSW,205,1.0,14.0,67,0.00,,,0.00,WeatherCatV1.11B39,2013-03-01 02:23:00,
2013-02-28 21:28:00,35.7,25.8,29.92,South,188,7.0,9.0,67,0.00,,,0.00,WeatherCatV1.11B39,2013-03-01 02:28:00,
2013-02-28 21:33:00,35.7,25.8,29.92,ESE,113,8.0,9.0,67,0.00,,,0.00,WeatherCatV1.11B39,2013-03-01 02:33:00,
2013-02-28 21:38:00,35.7,25.8,29.92,South,186,5.0,6.0,67,0.00,,,0.00,WeatherCatV1.11B39,2013-03-01 02:38:00,
2013-02-28 21:43:00,35.7,25.8,29.92,South,180,3.0,10.0,67,0.00,,,0.00,WeatherCatV1.11B39,2013-03-01 02:43:00,
2013-02-28 21:48:00,35.7,25.8,29.91,South,183,4.0,13.0,67,0.00,,,0.00,WeatherCatV1.11B39,2013-03-01 02:48:00,
2013-02-28 21:53:00,35.7,26.2,29.92,SSW,209,2.0,6.0,68,0.00,,,0.00,WeatherCatV1.11B39,2013-03-01 02:53:00,
2013-02-28 21:58:00,35.7,26.2,29.91,SSE,153,6.0,6.0,68,0.00,,,0.00,WeatherCatV1.11B39,2013-03-01 02:58:00,
2013-02-28 22:03:00,35.6,26.1,29.92,SSE,159,5.0,17.0,68,0.00,,,0.00,WeatherCatV1.11B39,2013-03-01 03:03:00,
2013-02-28 22:08:00,35.6,26.1,29.91,ESE,104,4.0,9.0,68,0.00,,,0.00,WeatherCatV1.11B39,2013-03-01 03:08:00,
2013-02-28 22:13:00,35.7,25.8,29.92,SSW,200,6.0,13.0,67,0.00,,,0.00,WeatherCatV1.11B39,2013-03-01 03:13:00,
2013-02-28 22:18:00,35.6,25.7,29.92,SE,146,4.0,11.0,67,0.00,,,0.00,WeatherCatV1.11B39,2013-03-01 03:18:00,
2013-02-28 22:23:00,35.6,25.7,29.91,SSE,160,2.0,8.0,67,0.00,,,0.00,WeatherCatV1.11B39,2013-03-01 03:23:00,
2013-02-28 22:28:00,35.6,26.1,29.91,SSW,208,5.0,5.0,68,0.00,,,0.00,WeatherCatV1.11B39,2013-03-01 03:28:00,
2013-02-28 22:33:00,35.6,26.1,29.92,SSW,193,1.0,8.0,68,0.00,,,0.00,WeatherCatV1.11B39,2013-03-01 03:33:00,
2013-02-28 22:38:00,35.6,26.1,29.91,SSE,148,7.0,7.0,68,0.00,,,0.00,WeatherCatV1.11B39,2013-03-01 03:38:00,
2013-02-28 22:43:00,35.6,26.1,29.91,SSW,192,9.0,10.0,68,0.00,,,0.00,WeatherCatV1.11B39,2013-03-01 03:43:00,
2013-02-28 22:48:00,35.5,26.0,29.91,South,181,10.0,12.0,68,0.00,,,0.00,WeatherCatV1.11B39,2013-03-01 03:48:00,
2013-02-28 22:53:00,35.5,25.6,29.91,SSE,166,6.0,14.0,67,0.00,,,0.00,WeatherCatV1.11B39,2013-03-01 03:53:00,
2013-02-28 22:58:00,35.5,26.0,29.91,South,173,6.0,11.0,68,0.00,,,0.00,WeatherCatV1.11B39,2013-03-01 03:58:00,
2013-02-28 23:03:00,35.5,26.0,29.90,SSE,154,2.0,10.0,68,0.00,,,0.00,WeatherCatV1.11B39,2013-03-01 04:03:00,
2013-02-28 23:08:00,35.4,25.9,29.90,SSE,167,4.0,5.0,68,0.00,,,0.00,WeatherCatV1.11B39,2013-03-01 04:08:00,
2013-02-28 23:13:00,35.3,25.5,29.90,SSE,156,6.0,10.0,67,0.00,,,0.00,WeatherCatV1.11B39,2013-03-01 04:13:00,
2013-02-28 23:18:00,35.2,25.7,29.91,SE,133,6.0,8.0,68,0.00,,,0.00,WeatherCatV1.11B39,2013-03-01 04:18:00,
2013-02-28 23:23:00,35.2,25.4,29.91,SE,142,6.0,9.0,67,0.00,,,0.00,WeatherCatV1.11B39,2013-03-01 04:23:00,
2013-02-28 23:28:00,35.1,25.6,29.91,SSW,197,4.0,6.0,68,0.00,,,0.00,WeatherCatV1.11B39,2013-03-01 04:28:00,
2013-02-28 23:33:00,35.0,25.5,29.90,South,174,11.0,19.0,68,0.00,,,0.00,WeatherCatV1.11B39,2013-03-01 04:33:00,
2013-02-28 23:38:00,35.1,25.6,29.90,SE,146,6.0,14.0,68,0.00,,,0.00,WeatherCatV1.11B39,2013-03-01 04:38:00,
2013-02-28 23:43:00,34.9,25.8,29.91,SE,144,5.0,9.0,69,0.00,,,0.00,WeatherCatV1.11B39,2013-03-01 04:43:00,
2013-02-28 23:47:00,34.8,25.7,29.90,SSW,194,5.0,11.0,69,0.00,,,0.00,WeatherCatV1.11B39,2013-03-01 04:47:00,
2013-02-28 23:52:00,34.9,25.8,29.90,SSE,162,4.0,9.0,69,0.00,,,0.00,WeatherCatV1.11B39,2013-03-01 04:52:00,
2013-02-28 23:57:00,34.8,26.0,29.89,SSW,202,11.0,12.0,70,0.00,,,0.00,WeatherCatV1.11B39,2013-03-01 04:57:00,